Ocean City, MD

6:50 PM EDT on October 16, 2017 (GMT -0400)
Ocean City Municipal

Weather History for KOXB - April, 2014

Change the Weather History Date:

Thursday, April 17, 2014

  Actual Average (KSBY) Record (KSBY)
Temperature  
Mean Temperature 44 °F -  
Max Temperature 48 °F 67 °F 92 °F (2002)
Min Temperature 42 °F 44 °F 26 °F (2008)
Degree Days  
Heating Degree Days 21    
Moisture  
Dew Point 32 °F    
Average Humidity 62    
Maximum Humidity 70    
Minimum Humidity 58    
Precipitation  
Precipitation 0.00 in - - ()
Sea Level Pressure  
Sea Level Pressure 30.59 in    
Wind  
Wind Speed 12 mph (ENE)    
Max Wind Speed 18 mph    
Max Gust Speed 25 mph    
Visibility 10 miles    
Events      
Averages and records for this station are not official NWS values.
T = Trace of Precipitation, MM = Missing Value Source: NWS Daily Summary

Daily Weather History Graph

Daily Weather History Graph

Search for Another Location

Airport or City:

Trip Planner

Search our weather history database for the weather conditions in past years. The results will help you decide how hot, cold, wet, or windy it might be!

Date:

Astronomy

Apr. 17, 2014 Rise Set
Actual Time 6:21 AM EDT 7:38 PM EDT
Civil Twilight 5:54 AM EDT 8:06 PM EDT
Nautical Twilight 5:21 AM EDT 8:39 PM EDT
Astronomical Twilight 4:47 AM EDT 9:13 PM EDT
Moon 10:20 PM EDT (4/17) 7:53 AM EDT (4/17)
Length of Visible Light 14h 11m
Length of Day
13h 16m
Waning Gibbous, 94% of the Moon is Illuminated
Apr 17
Waning Gibbous
Apr 22
Last Quarter
Apr 29
New
May 6
First Quarter
May 14
Full

Hourly Weather History & Observations

Time (EDT) Temp. Windchill Dew Point Humidity Pressure Visibility Wind Dir Wind Speed Gust Speed Precip Events Conditions
12:53 AM 42.1 °F 36.1 °F 28.9 °F 60% 30.54 in 10.0 mi ENE 10.4 mph - N/A   Clear
1:53 AM 43.0 °F 37.2 °F 28.9 °F 58% 30.53 in 10.0 mi ENE 10.4 mph - N/A   Clear
2:53 AM 43.0 °F 36.8 °F 28.9 °F 58% 30.53 in 10.0 mi East 11.5 mph - N/A   Clear
3:53 AM 42.1 °F 37.1 °F 28.0 °F 58% 30.53 in 10.0 mi ENE 8.1 mph - N/A   Clear
4:53 AM 42.1 °F 37.1 °F 28.9 °F 60% 30.55 in 10.0 mi ENE 8.1 mph - N/A   Clear
5:53 AM 43.0 °F 37.2 °F 30.0 °F 60% 30.56 in 10.0 mi ENE 10.4 mph - N/A   Clear
6:53 AM 43.0 °F 37.2 °F 28.9 °F 58% 30.59 in 10.0 mi East 10.4 mph - N/A   Clear
7:53 AM 44.1 °F 37.7 °F 32.0 °F 63% 30.62 in 10.0 mi East 12.7 mph - N/A   Mostly Cloudy
8:53 AM 44.1 °F 37.4 °F 30.9 °F 60% 30.64 in 10.0 mi East 13.8 mph 19.6 mph N/A   Overcast
9:53 AM 46.0 °F 40.2 °F 32.0 °F 58% 30.66 in 10.0 mi East 12.7 mph 20.7 mph N/A   Overcast
10:53 AM 46.0 °F 40.2 °F 32.0 °F 58% 30.67 in 10.0 mi ENE 12.7 mph - N/A   Overcast
1:53 PM 46.9 °F - 33.1 °F 59% 30.64 in 10.0 mi NE 15.0 mph 20.7 mph N/A   Overcast
2:53 PM 46.9 °F - 34.0 °F 61% 30.63 in 10.0 mi ENE 16.1 mph 25.3 mph N/A   Mostly Cloudy
3:53 PM 46.0 °F 38.8 °F 34.0 °F 63% 30.61 in 10.0 mi NE 18.4 mph 25.3 mph N/A   Overcast
4:53 PM 46.0 °F 39.3 °F 34.0 °F 63% 30.61 in 10.0 mi NE 16.1 mph 21.9 mph N/A   Overcast
5:14 PM 45.0 °F 37.9 °F 34.0 °F 65% 30.61 in 10.0 mi NE 16.1 mph 23.0 mph N/A   Overcast
5:53 PM 44.1 °F 36.8 °F 33.1 °F 65% 30.60 in 10.0 mi NE 16.1 mph 21.9 mph N/A   Overcast
6:53 PM 43.0 °F 36.0 °F 32.0 °F 65% 30.60 in 10.0 mi ENE 13.8 mph 23.0 mph N/A   Overcast
7:53 PM 43.0 °F 36.8 °F 32.0 °F 65% 30.60 in 10.0 mi ENE 11.5 mph 20.7 mph N/A   Overcast
8:53 PM 43.0 °F 36.0 °F 32.0 °F 65% 30.59 in 10.0 mi ENE 13.8 mph 23.0 mph N/A   Overcast
9:53 PM 42.1 °F 34.9 °F 33.1 °F 70% 30.58 in 10.0 mi ENE 13.8 mph 23.0 mph N/A   Overcast
10:53 PM 42.1 °F 34.2 °F 33.1 °F 70% 30.56 in 10.0 mi East 16.1 mph 23.0 mph N/A   Overcast
11:53 PM 42.1 °F 35.7 °F 32.0 °F 67% 30.56 in 10.0 mi NE 11.5 mph - N/A   Overcast